Time,TemperatureF,DewpointF,PressureIn,WindDirection,WindDirectionDegrees,WindSpeedMPH,WindSpeedGustMPH,Humidity,HourlyPrecipIn,Conditions,Clouds,dailyrainin,SoftwareType,DateUTC
2013-09-13 00:01:00,68.8,64.1,29.73,West,270,0.0,0.0,85,0.00,,,0.00,WUHU21623XXSP,2013-09-13 04:01:00,
2013-09-13 00:02:00,68.8,64.1,29.73,West,270,0.0,0.0,85,0.00,,,0.00,WUHU21623XXSP,2013-09-13 04:02:00,
2013-09-13 00:07:00,68.8,64.1,29.72,West,270,1.3,2.0,85,0.00,,,0.00,WUHU21623XXSP,2013-09-13 04:07:00,
2013-09-13 00:12:00,68.8,64.1,29.73,West,270,0.0,2.0,85,0.00,,,0.00,WUHU21623XXSP,2013-09-13 04:12:00,
2013-09-13 00:17:00,68.8,64.1,29.72,West,270,0.0,0.0,85,0.00,,,0.00,WUHU21623XXSP,2013-09-13 04:17:00,
2013-09-13 00:22:00,68.6,63.9,29.72,West,270,0.0,0.0,85,0.00,,,0.00,WUHU21623XXSP,2013-09-13 04:22:00,
2013-09-13 00:27:00,68.6,63.9,29.72,West,270,0.0,0.0,85,0.00,,,0.00,WUHU21623XXSP,2013-09-13 04:27:00,
2013-09-13 00:32:00,68.6,63.9,29.72,West,270,0.0,0.0,85,0.00,,,0.00,WUHU21623XXSP,2013-09-13 04:32:00,
2013-09-13 00:37:00,68.6,63.9,29.72,West,270,0.0,0.0,85,0.00,,,0.00,WUHU21623XXSP,2013-09-13 04:37:00,
2013-09-13 00:42:00,68.6,63.9,29.72,West,270,0.0,0.0,85,0.00,,,0.00,WUHU21623XXSP,2013-09-13 04:42:00,
2013-09-13 00:47:00,68.6,63.9,29.72,West,270,0.0,0.0,85,0.00,,,0.00,WUHU21623XXSP,2013-09-13 04:47:00,
2013-09-13 00:52:00,68.6,63.9,29.72,West,270,0.0,0.0,85,0.00,,,0.00,WUHU21623XXSP,2013-09-13 04:52:00,
2013-09-13 00:57:00,68.6,63.9,29.72,NNW,337,14.1,14.1,85,0.00,,,0.00,WUHU21623XXSP,2013-09-13 04:57:00,
2013-09-13 01:02:00,68.6,63.9,29.72,West,270,0.0,14.1,85,0.00,,,0.00,WUHU21623XXSP,2013-09-13 05:02:00,
2013-09-13 01:07:00,68.6,63.9,29.72,West,270,0.0,0.0,85,0.00,,,0.00,WUHU21623XXSP,2013-09-13 05:07:00,
2013-09-13 01:12:00,68.6,64.3,29.72,West,270,0.0,0.0,86,0.00,,,0.00,WUHU21623XXSP,2013-09-13 05:12:00,
2013-09-13 01:17:00,68.6,64.3,29.72,West,270,0.0,0.0,86,0.00,,,0.00,WUHU21623XXSP,2013-09-13 05:17:00,
2013-09-13 01:22:00,68.6,64.3,29.72,WNW,292,0.0,0.0,86,0.00,,,0.00,WUHU21623XXSP,2013-09-13 05:22:00,
2013-09-13 01:27:00,68.6,64.3,29.70,WNW,292,0.0,0.0,86,0.00,,,0.00,WUHU21623XXSP,2013-09-13 05:27:00,
2013-09-13 01:32:00,68.6,64.3,29.71,NW,315,0.0,0.0,86,0.00,,,0.00,WUHU21623XXSP,2013-09-13 05:32:00,
2013-09-13 01:37:00,68.6,64.3,29.71,NW,315,0.0,0.0,86,0.00,,,0.00,WUHU21623XXSP,2013-09-13 05:37:00,
2013-09-13 01:42:00,68.6,64.3,29.70,NW,315,0.0,0.0,86,0.00,,,0.00,WUHU21623XXSP,2013-09-13 05:42:00,
2013-09-13 01:46:00,68.4,64.1,29.70,NW,315,0.0,0.0,86,0.00,,,0.00,WUHU21623XXSP,2013-09-13 05:46:00,
2013-09-13 01:51:00,68.4,64.1,29.70,NW,315,0.0,0.0,86,0.00,,,0.00,WUHU21623XXSP,2013-09-13 05:51:00,
2013-09-13 01:56:00,68.4,64.1,29.70,NW,315,0.0,0.0,86,0.00,,,0.00,WUHU21623XXSP,2013-09-13 05:56:00,
2013-09-13 02:01:00,68.6,64.3,29.70,NW,315,0.0,0.0,86,0.00,,,0.00,WUHU21623XXSP,2013-09-13 06:01:00,
2013-09-13 02:06:00,68.6,64.3,29.69,NW,315,0.0,0.0,86,0.00,,,0.00,WUHU21623XXSP,2013-09-13 06:06:00,
2013-09-13 02:11:00,68.4,64.1,29.70,NW,315,0.0,0.0,86,0.00,,,0.00,WUHU21623XXSP,2013-09-13 06:11:00,
2013-09-13 02:16:00,68.6,64.3,29.69,NW,315,0.0,0.0,86,0.00,,,0.00,WUHU21623XXSP,2013-09-13 06:16:00,
2013-09-13 02:21:00,68.6,64.3,29.69,NW,315,0.0,0.0,86,0.00,,,0.00,WUHU21623XXSP,2013-09-13 06:21:00,
2013-09-13 02:26:00,68.4,64.1,29.69,NW,315,0.0,0.0,86,0.00,,,0.00,WUHU21623XXSP,2013-09-13 06:26:00,
2013-09-13 02:31:00,68.6,64.3,29.69,NW,315,0.0,0.0,86,0.00,,,0.00,WUHU21623XXSP,2013-09-13 06:31:00,
2013-09-13 02:36:00,68.4,64.1,29.69,NW,315,0.0,0.0,86,0.00,,,0.00,WUHU21623XXSP,2013-09-13 06:36:00,
2013-09-13 02:41:00,68.6,64.3,29.69,NW,315,0.0,0.0,86,0.00,,,0.00,WUHU21623XXSP,2013-09-13 06:41:00,
2013-09-13 02:46:00,68.4,64.1,29.68,NW,315,0.0,0.0,86,0.00,,,0.00,WUHU21623XXSP,2013-09-13 06:46:00,
2013-09-13 02:51:00,68.4,64.1,29.68,NW,315,0.0,0.0,86,0.00,,,0.00,WUHU21623XXSP,2013-09-13 06:51:00,
2013-09-13 02:56:00,68.4,64.1,29.69,NW,315,0.0,14.1,86,0.00,,,0.00,WUHU21623XXSP,2013-09-13 06:56:00,
2013-09-13 03:01:00,68.4,64.1,29.68,NW,315,0.0,14.1,86,0.00,,,0.00,WUHU21623XXSP,2013-09-13 07:01:00,
2013-09-13 03:06:00,68.4,64.1,29.68,NW,315,0.0,0.0,86,0.00,,,0.00,WUHU21623XXSP,2013-09-13 07:06:00,
2013-09-13 03:11:00,68.4,64.1,29.68,NW,315,0.0,0.0,86,0.00,,,0.00,WUHU21623XXSP,2013-09-13 07:11:00,
2013-09-13 03:16:00,68.4,64.1,29.68,NW,315,0.0,0.0,86,0.00,,,0.00,WUHU21623XXSP,2013-09-13 07:16:00,
2013-09-13 03:21:00,68.2,63.9,29.68,NW,315,0.0,0.0,86,0.00,,,0.00,WUHU21623XXSP,2013-09-13 07:21:00,
2013-09-13 03:26:00,68.2,63.9,29.68,NW,315,0.0,0.0,86,0.00,,,0.00,WUHU21623XXSP,2013-09-13 07:26:00,
2013-09-13 03:31:00,68.2,63.9,29.68,NW,315,0.0,14.1,86,0.00,,,0.00,WUHU21623XXSP,2013-09-13 07:31:00,
2013-09-13 03:36:00,68.2,63.9,29.68,NW,315,0.0,14.1,86,0.00,,,0.00,WUHU21623XXSP,2013-09-13 07:36:00,
2013-09-13 03:41:00,68.1,63.8,29.68,NW,315,0.0,0.0,86,0.00,,,0.00,WUHU21623XXSP,2013-09-13 07:41:00,
2013-09-13 03:46:00,68.1,63.8,29.68,NW,315,0.0,0.0,86,0.00,,,0.00,WUHU21623XXSP,2013-09-13 07:46:00,
2013-09-13 03:51:00,68.1,63.8,29.68,WNW,292,0.0,0.0,86,0.00,,,0.00,WUHU21623XXSP,2013-09-13 07:51:00,
2013-09-13 03:56:00,68.1,63.8,29.68,WNW,292,0.0,0.0,86,0.00,,,0.00,WUHU21623XXSP,2013-09-13 07:56:00,
2013-09-13 04:01:00,68.1,63.8,29.68,WNW,292,0.0,0.0,86,0.00,,,0.00,WUHU21623XXSP,2013-09-13 08:01:00,
2013-09-13 04:06:00,67.9,63.6,29.69,WNW,292,0.0,0.0,86,0.00,,,0.00,WUHU21623XXSP,2013-09-13 08:06:00,
2013-09-13 04:11:00,67.9,63.6,29.68,WNW,292,0.0,0.0,86,0.00,,,0.00,WUHU21623XXSP,2013-09-13 08:11:00,
2013-09-13 04:16:00,67.9,63.6,29.69,WNW,292,0.0,0.0,86,0.00,,,0.00,WUHU21623XXSP,2013-09-13 08:16:00,
2013-09-13 04:21:00,67.9,63.6,29.69,WNW,292,0.0,0.0,86,0.00,,,0.00,WUHU21623XXSP,2013-09-13 08:21:00,
2013-09-13 04:26:00,67.9,63.6,29.69,WNW,292,0.0,0.0,86,0.00,,,0.00,WUHU21623XXSP,2013-09-13 08:26:00,
2013-09-13 04:31:00,67.9,63.6,29.69,WNW,292,0.0,0.0,86,0.00,,,0.00,WUHU21623XXSP,2013-09-13 08:31:00,
2013-09-13 04:36:00,67.9,63.6,29.69,WNW,292,0.0,0.0,86,0.00,,,0.00,WUHU21623XXSP,2013-09-13 08:36:00,
2013-09-13 04:41:00,67.9,63.6,29.70,WNW,292,0.0,0.0,86,0.00,,,0.00,WUHU21623XXSP,2013-09-13 08:41:00,
2013-09-13 04:46:00,67.9,63.6,29.70,WNW,292,0.0,0.0,86,0.00,,,0.00,WUHU21623XXSP,2013-09-13 08:46:00,
2013-09-13 04:51:00,67.7,63.4,29.69,WNW,292,0.0,14.1,86,0.00,,,0.00,WUHU21623XXSP,2013-09-13 08:51:00,
2013-09-13 04:56:00,67.5,63.2,29.70,WNW,292,0.0,14.1,86,0.00,,,0.00,WUHU21623XXSP,2013-09-13 08:56:00,
2013-09-13 05:01:00,67.5,63.2,29.70,WNW,292,0.0,0.0,86,0.00,,,0.00,WUHU21623XXSP,2013-09-13 09:01:00,
2013-09-13 05:06:00,67.5,63.2,29.70,WNW,292,0.0,0.0,86,0.00,,,0.00,WUHU21623XXSP,2013-09-13 09:06:00,
2013-09-13 05:11:00,67.5,63.2,29.70,WNW,292,0.0,0.0,86,0.00,,,0.00,WUHU21623XXSP,2013-09-13 09:11:00,
2013-09-13 05:16:00,67.5,63.2,29.69,WNW,292,0.0,0.0,86,0.00,,,0.00,WUHU21623XXSP,2013-09-13 09:16:00,
2013-09-13 05:21:00,67.5,63.2,29.70,WNW,292,0.0,0.0,86,0.00,,,0.00,WUHU21623XXSP,2013-09-13 09:21:00,
2013-09-13 05:26:00,67.5,63.2,29.70,WNW,292,0.0,0.0,86,0.00,,,0.00,WUHU21623XXSP,2013-09-13 09:26:00,
2013-09-13 05:31:00,67.3,63.0,29.70,WNW,292,0.0,0.0,86,0.00,,,0.00,WUHU21623XXSP,2013-09-13 09:31:00,
2013-09-13 05:36:00,67.3,63.0,29.70,NNW,337,14.1,14.1,86,0.00,,,0.00,WUHU21623XXSP,2013-09-13 09:36:00,
2013-09-13 05:41:00,67.3,63.0,29.69,WNW,292,0.0,14.1,86,0.00,,,0.00,WUHU21623XXSP,2013-09-13 09:41:00,
2013-09-13 05:46:00,67.3,63.0,29.70,WNW,292,0.0,0.0,86,0.00,,,0.00,WUHU21623XXSP,2013-09-13 09:46:00,
2013-09-13 05:51:00,67.3,63.0,29.70,WNW,292,0.0,0.0,86,0.00,,,0.00,WUHU21623XXSP,2013-09-13 09:51:00,
2013-09-13 05:56:00,67.2,62.9,29.70,WNW,292,0.0,0.0,86,0.00,,,0.00,WUHU21623XXSP,2013-09-13 09:56:00,
2013-09-13 06:01:00,67.0,62.7,29.70,WNW,292,0.0,0.0,86,0.00,,,0.00,WUHU21623XXSP,2013-09-13 10:01:00,
2013-09-13 06:06:00,67.0,62.7,29.70,WNW,292,0.0,0.0,86,0.00,,,0.00,WUHU21623XXSP,2013-09-13 10:06:00,
2013-09-13 06:11:00,67.0,62.7,29.70,NNW,337,14.1,14.1,86,0.00,,,0.00,WUHU21623XXSP,2013-09-13 10:11:00,
2013-09-13 06:16:00,66.8,62.5,29.70,WNW,292,0.0,14.1,86,0.00,,,0.00,WUHU21623XXSP,2013-09-13 10:16:00,
2013-09-13 06:21:00,66.8,62.5,29.70,WNW,292,0.0,0.0,86,0.00,,,0.00,WUHU21623XXSP,2013-09-13 10:21:00,
2013-09-13 06:26:00,66.8,62.5,29.71,WNW,292,0.0,0.0,86,0.00,,,0.00,WUHU21623XXSP,2013-09-13 10:26:00,
2013-09-13 06:31:00,66.6,62.3,29.71,WNW,292,0.0,0.0,86,0.00,,,0.00,WUHU21623XXSP,2013-09-13 10:31:00,
2013-09-13 06:36:00,66.6,62.3,29.71,WNW,292,0.0,14.1,86,0.00,,,0.00,WUHU21623XXSP,2013-09-13 10:36:00,
2013-09-13 06:41:00,66.6,62.3,29.71,WNW,292,0.0,14.1,86,0.00,,,0.00,WUHU21623XXSP,2013-09-13 10:41:00,
2013-09-13 06:46:00,66.4,62.1,29.71,WNW,292,0.0,0.0,86,0.00,,,0.00,WUHU21623XXSP,2013-09-13 10:46:00,
2013-09-13 06:51:00,66.4,62.1,29.72,WNW,292,0.0,0.0,86,0.00,,,0.00,WUHU21623XXSP,2013-09-13 10:51:00,
2013-09-13 06:56:00,66.3,62.0,29.72,WNW,292,0.0,0.0,86,0.00,,,0.00,WUHU21623XXSP,2013-09-13 10:56:00,
2013-09-13 07:01:00,66.1,61.8,29.72,WNW,292,0.0,0.0,86,0.00,,,0.00,WUHU21623XXSP,2013-09-13 11:01:00,
2013-09-13 07:06:00,66.1,61.8,29.72,WNW,292,0.0,0.0,86,0.00,,,0.00,WUHU21623XXSP,2013-09-13 11:06:00,
2013-09-13 07:11:00,65.9,61.6,29.72,WNW,292,0.0,0.0,86,0.00,,,0.00,WUHU21623XXSP,2013-09-13 11:11:00,
2013-09-13 07:16:00,65.7,61.4,29.72,WNW,292,0.0,0.0,86,0.00,,,0.00,WUHU21623XXSP,2013-09-13 11:16:00,
2013-09-13 07:21:00,65.7,61.4,29.73,WNW,292,0.0,0.0,86,0.00,,,0.00,WUHU21623XXSP,2013-09-13 11:21:00,
2013-09-13 07:26:00,65.9,61.6,29.72,NNW,337,14.1,14.1,86,0.00,,,0.00,WUHU21623XXSP,2013-09-13 11:26:00,
2013-09-13 07:31:00,65.9,61.6,29.73,North,0,0.0,14.1,86,0.00,,,0.00,WUHU21623XXSP,2013-09-13 11:31:00,
2013-09-13 07:36:00,65.9,61.6,29.73,North,0,0.0,0.0,86,0.00,,,0.00,WUHU21623XXSP,2013-09-13 11:36:00,
2013-09-13 07:41:00,66.1,61.8,29.73,North,0,0.0,0.0,86,0.00,,,0.00,WUHU21623XXSP,2013-09-13 11:41:00,
2013-09-13 07:46:00,66.1,61.8,29.73,North,0,0.0,0.0,86,0.00,,,0.00,WUHU21623XXSP,2013-09-13 11:46:00,
2013-09-13 07:51:00,66.1,61.8,29.74,North,0,0.0,14.1,86,0.00,,,0.00,WUHU21623XXSP,2013-09-13 11:51:00,
2013-09-13 07:56:00,66.1,61.8,29.73,North,0,0.0,14.1,86,0.00,,,0.00,WUHU21623XXSP,2013-09-13 11:56:00,
2013-09-13 08:01:00,66.1,61.8,29.73,North,0,0.0,0.0,86,0.00,,,0.00,WUHU21623XXSP,2013-09-13 12:01:00,
2013-09-13 08:06:00,66.1,61.8,29.73,North,0,0.0,0.0,86,0.00,,,0.00,WUHU21623XXSP,2013-09-13 12:06:00,
2013-09-13 08:11:00,66.3,62.0,29.73,North,0,0.0,0.0,86,0.00,,,0.00,WUHU21623XXSP,2013-09-13 12:11:00,
2013-09-13 08:16:00,66.3,62.0,29.73,North,0,0.0,0.0,86,0.00,,,0.00,WUHU21623XXSP,2013-09-13 12:16:00,
2013-09-13 08:21:00,66.3,62.0,29.74,North,0,0.0,0.0,86,0.00,,,0.00,WUHU21623XXSP,2013-09-13 12:21:00,
2013-09-13 08:26:00,66.3,62.0,29.73,North,0,0.0,0.0,86,0.00,,,0.00,WUHU21623XXSP,2013-09-13 12:26:00,
2013-09-13 08:31:00,66.3,62.0,29.74,North,0,0.0,0.0,86,0.00,,,0.00,WUHU21623XXSP,2013-09-13 12:31:00,
2013-09-13 08:36:00,66.1,61.8,29.74,North,0,0.0,0.0,86,0.00,,,0.00,WUHU21623XXSP,2013-09-13 12:36:00,
2013-09-13 08:41:00,66.1,61.8,29.74,North,0,0.0,0.0,86,0.00,,,0.00,WUHU21623XXSP,2013-09-13 12:41:00,
2013-09-13 08:46:00,66.1,61.8,29.75,North,0,0.0,0.0,86,0.00,,,0.00,WUHU21623XXSP,2013-09-13 12:46:00,
2013-09-13 08:51:00,66.1,61.8,29.75,NNW,337,14.1,14.1,86,0.00,,,0.00,WUHU21623XXSP,2013-09-13 12:51:00,
2013-09-13 08:56:00,66.1,61.8,29.75,North,0,0.0,14.1,86,0.00,,,0.00,WUHU21623XXSP,2013-09-13 12:56:00,
2013-09-13 09:01:00,65.7,61.4,29.75,North,0,0.0,0.0,86,0.00,,,0.00,WUHU21623XXSP,2013-09-13 13:01:00,
2013-09-13 09:06:00,65.9,61.6,29.75,WNW,292,1.6,1.6,86,0.00,,,0.00,WUHU21623XXSP,2013-09-13 13:06:00,
2013-09-13 09:11:00,65.7,61.4,29.75,WNW,292,0.0,1.6,86,0.00,,,0.00,WUHU21623XXSP,2013-09-13 13:11:00,
2013-09-13 09:16:00,65.7,61.4,29.75,WNW,292,0.0,0.0,86,0.00,,,0.00,WUHU21623XXSP,2013-09-13 13:16:00,
2013-09-13 09:21:00,65.7,61.4,29.75,WNW,292,0.0,0.0,86,0.00,,,0.00,WUHU21623XXSP,2013-09-13 13:21:00,
2013-09-13 09:26:00,65.9,61.6,29.75,WNW,292,0.0,0.0,86,0.00,,,0.00,WUHU21623XXSP,2013-09-13 13:26:00,
2013-09-13 09:31:00,65.9,61.6,29.76,WNW,292,0.0,0.0,86,0.00,,,0.00,WUHU21623XXSP,2013-09-13 13:31:00,
2013-09-13 09:36:00,65.7,61.4,29.76,WNW,292,0.0,0.0,86,0.00,,,0.00,WUHU21623XXSP,2013-09-13 13:36:00,
2013-09-13 09:41:00,65.7,61.4,29.75,WNW,292,0.0,0.0,86,0.00,,,0.00,WUHU21623XXSP,2013-09-13 13:41:00,
2013-09-13 09:45:00,65.7,61.1,29.76,WNW,292,0.0,0.0,85,0.00,,,0.00,WUHU21623XXSP,2013-09-13 13:45:00,
2013-09-13 09:50:00,65.7,61.1,29.76,WNW,292,0.0,0.0,85,0.00,,,0.00,WUHU21623XXSP,2013-09-13 13:50:00,
2013-09-13 09:55:00,65.7,61.1,29.76,WNW,292,0.0,0.0,85,0.00,,,0.00,WUHU21623XXSP,2013-09-13 13:55:00,
2013-09-13 10:00:00,65.7,61.1,29.76,WNW,292,0.0,0.0,85,0.00,,,0.00,WUHU21623XXSP,2013-09-13 14:00:00,
2013-09-13 10:05:00,65.7,61.1,29.76,WNW,292,0.0,0.0,85,0.00,,,0.00,WUHU21623XXSP,2013-09-13 14:05:00,
2013-09-13 10:10:00,65.9,61.3,29.77,WNW,292,0.0,0.0,85,0.00,,,0.00,WUHU21623XXSP,2013-09-13 14:10:00,
2013-09-13 10:15:00,65.7,61.1,29.76,WNW,292,0.0,0.0,85,0.00,,,0.00,WUHU21623XXSP,2013-09-13 14:15:00,
2013-09-13 10:20:00,65.7,61.1,29.76,WNW,292,0.0,0.0,85,0.00,,,0.00,WUHU21623XXSP,2013-09-13 14:20:00,
2013-09-13 10:25:00,65.7,61.1,29.76,WNW,292,0.0,0.0,85,0.00,,,0.00,WUHU21623XXSP,2013-09-13 14:25:00,
2013-09-13 10:30:00,65.7,61.1,29.77,WNW,292,3.1,3.1,85,0.00,,,0.00,WUHU21623XXSP,2013-09-13 14:30:00,
2013-09-13 10:35:00,65.7,61.1,29.77,WNW,292,0.0,3.1,85,0.00,,,0.00,WUHU21623XXSP,2013-09-13 14:35:00,
2013-09-13 10:40:00,65.7,61.1,29.76,WNW,292,0.0,0.0,85,0.00,,,0.00,WUHU21623XXSP,2013-09-13 14:40:00,
2013-09-13 10:45:00,66.1,61.5,29.77,WNW,292,0.0,0.0,85,0.00,,,0.00,WUHU21623XXSP,2013-09-13 14:45:00,
2013-09-13 10:50:00,66.1,61.5,29.76,WNW,292,0.0,0.0,85,0.00,,,0.00,WUHU21623XXSP,2013-09-13 14:50:00,
2013-09-13 10:55:00,66.1,61.2,29.76,WNW,292,0.0,0.0,84,0.00,,,0.00,WUHU21623XXSP,2013-09-13 14:55:00,
2013-09-13 11:00:00,66.1,61.2,29.76,NNW,337,0.0,0.0,84,0.00,,,0.00,WUHU21623XXSP,2013-09-13 15:00:00,
2013-09-13 11:05:00,66.3,61.3,29.76,North,0,0.0,0.0,84,0.00,,,0.00,WUHU21623XXSP,2013-09-13 15:05:00,
2013-09-13 11:10:00,66.4,61.4,29.77,WNW,292,0.0,0.0,84,0.00,,,0.00,WUHU21623XXSP,2013-09-13 15:10:00,
2013-09-13 11:15:00,66.8,61.5,29.76,NW,315,0.7,1.6,83,0.00,,,0.00,WUHU21623XXSP,2013-09-13 15:15:00,
2013-09-13 11:20:00,67.0,61.7,29.76,NW,315,0.0,1.6,83,0.00,,,0.00,WUHU21623XXSP,2013-09-13 15:20:00,
2013-09-13 11:25:00,67.2,61.6,29.77,NW,315,0.0,0.0,82,0.00,,,0.00,WUHU21623XXSP,2013-09-13 15:25:00,
2013-09-13 11:30:00,67.3,61.7,29.76,NW,315,0.0,0.0,82,0.00,,,0.00,WUHU21623XXSP,2013-09-13 15:30:00,
2013-09-13 11:35:00,67.5,61.9,29.76,NW,315,0.0,0.0,82,0.00,,,0.00,WUHU21623XXSP,2013-09-13 15:35:00,
2013-09-13 11:40:00,67.7,61.7,29.76,West,270,0.0,0.0,81,0.00,,,0.00,WUHU21623XXSP,2013-09-13 15:40:00,
2013-09-13 11:45:00,68.1,61.8,29.76,West,270,0.0,0.0,80,0.00,,,0.00,WUHU21623XXSP,2013-09-13 15:45:00,
2013-09-13 11:50:00,68.4,62.1,29.76,West,270,0.0,5.1,80,0.00,,,0.00,WUHU21623XXSP,2013-09-13 15:50:00,
2013-09-13 11:55:00,68.8,61.8,29.76,SSE,157,3.7,5.6,78,0.00,,,0.00,WUHU21623XXSP,2013-09-13 15:55:00,
2013-09-13 12:00:00,69.1,62.1,29.76,NW,306,4.3,5.6,78,0.00,,,0.00,WUHU21623XXSP,2013-09-13 16:00:00,
2013-09-13 12:05:00,69.7,61.9,29.76,SW,225,0.0,5.1,76,0.00,,,0.00,WUHU21623XXSP,2013-09-13 16:05:00,
2013-09-13 12:10:00,69.9,61.8,29.76,WSW,247,0.0,0.7,75,0.00,,,0.00,WUHU21623XXSP,2013-09-13 16:10:00,
2013-09-13 12:15:00,70.2,61.7,29.76,NW,325,2.7,5.8,74,0.00,,,0.00,WUHU21623XXSP,2013-09-13 16:15:00,
2013-09-13 12:20:00,70.4,61.5,29.76,North,0,0.0,5.8,73,0.00,,,0.00,WUHU21623XXSP,2013-09-13 16:20:00,
2013-09-13 12:25:00,70.6,61.7,29.76,NNW,337,0.0,0.0,73,0.00,,,0.00,WUHU21623XXSP,2013-09-13 16:25:00,
2013-09-13 12:30:00,70.9,61.6,29.75,NNE,26,3.0,4.0,72,0.00,,,0.00,WUHU21623XXSP,2013-09-13 16:30:00,
2013-09-13 12:35:00,71.1,61.8,29.75,North,0,0.0,4.0,72,0.00,,,0.00,WUHU21623XXSP,2013-09-13 16:35:00,
2013-09-13 12:40:00,71.3,61.6,29.75,North,0,0.0,0.0,71,0.00,,,0.00,WUHU21623XXSP,2013-09-13 16:40:00,
2013-09-13 12:45:00,71.5,61.0,29.76,NNW,341,2.5,5.6,69,0.00,,,0.00,WUHU21623XXSP,2013-09-13 16:45:00,
2013-09-13 12:50:00,71.7,60.8,29.75,NNW,337,0.0,5.6,68,0.00,,,0.00,WUHU21623XXSP,2013-09-13 16:50:00,
2013-09-13 12:55:00,71.7,60.8,29.75,NW,315,3.6,6.3,68,0.00,,,0.00,WUHU21623XXSP,2013-09-13 16:55:00,
2013-09-13 13:00:00,71.8,60.9,29.75,NNW,334,5.9,6.7,68,0.00,,,0.00,WUHU21623XXSP,2013-09-13 17:00:00,
2013-09-13 13:05:00,72.0,60.6,29.75,NNW,337,3.6,6.7,67,0.00,,,0.00,WUHU21623XXSP,2013-09-13 17:05:00,
2013-09-13 13:10:00,72.0,60.6,29.75,North,0,2.9,6.7,67,0.00,,,0.00,WUHU21623XXSP,2013-09-13 17:10:00,
2013-09-13 13:15:00,72.0,60.2,29.75,WNW,292,6.5,6.5,66,0.00,,,0.00,WUHU21623XXSP,2013-09-13 17:15:00,
2013-09-13 13:20:00,72.0,60.2,29.75,NNW,337,0.0,6.5,66,0.00,,,0.00,WUHU21623XXSP,2013-09-13 17:20:00,
2013-09-13 13:25:00,72.2,60.0,29.75,NW,321,5.2,9.2,65,0.00,,,0.00,WUHU21623XXSP,2013-09-13 17:25:00,
2013-09-13 13:30:00,72.2,59.5,29.75,NNW,337,5.4,9.2,64,0.00,,,0.00,WUHU21623XXSP,2013-09-13 17:30:00,
2013-09-13 13:35:00,72.2,59.5,29.75,NW,313,4.1,7.4,64,0.00,,,0.00,WUHU21623XXSP,2013-09-13 17:35:00,
2013-09-13 13:40:00,72.2,59.5,29.75,WNW,292,0.0,7.4,64,0.00,,,0.00,WUHU21623XXSP,2013-09-13 17:40:00,
2013-09-13 13:45:00,72.2,59.5,29.75,NNW,337,0.0,0.0,64,0.00,,,0.00,WUHU21623XXSP,2013-09-13 17:45:00,
2013-09-13 13:50:00,72.2,59.1,29.75,WSW,247,0.0,3.1,63,0.00,,,0.00,WUHU21623XXSP,2013-09-13 17:50:00,
2013-09-13 13:55:00,72.4,59.3,29.75,NNW,337,4.9,4.9,63,0.00,,,0.00,WUHU21623XXSP,2013-09-13 17:55:00,
2013-09-13 14:00:00,72.4,58.8,29.74,NNW,337,1.6,12.5,62,0.00,,,0.00,WUHU21623XXSP,2013-09-13 18:00:00,
2013-09-13 14:05:00,72.4,58.4,29.75,North,0,2.7,12.5,61,0.00,,,0.00,WUHU21623XXSP,2013-09-13 18:05:00,
2013-09-13 14:10:00,72.4,58.4,29.74,WNW,292,6.5,8.1,61,0.00,,,0.00,WUHU21623XXSP,2013-09-13 18:10:00,
2013-09-13 14:15:00,72.6,58.6,29.74,SW,225,0.0,8.1,61,0.00,,,0.00,WUHU21623XXSP,2013-09-13 18:15:00,
2013-09-13 14:20:00,72.7,58.7,29.74,NW,315,8.5,8.5,61,0.00,,,0.00,WUHU21623XXSP,2013-09-13 18:20:00,
2013-09-13 14:25:00,72.9,58.9,29.74,North,0,4.0,8.5,61,0.00,,,0.00,WUHU21623XXSP,2013-09-13 18:25:00,
2013-09-13 14:30:00,72.9,58.4,29.74,West,270,3.4,4.0,60,0.00,,,0.00,WUHU21623XXSP,2013-09-13 18:30:00,
2013-09-13 14:35:00,72.7,58.2,29.74,NNW,337,0.0,3.4,60,0.00,,,0.00,WUHU21623XXSP,2013-09-13 18:35:00,
2013-09-13 14:40:00,72.9,58.4,29.74,North,0,0.0,0.0,60,0.00,,,0.00,WUHU21623XXSP,2013-09-13 18:40:00,
2013-09-13 14:45:00,72.9,57.9,29.74,NNW,347,1.5,5.6,59,0.00,,,0.00,WUHU21623XXSP,2013-09-13 18:45:00,
2013-09-13 14:50:00,72.9,57.9,29.74,North,0,0.0,5.6,59,0.00,,,0.00,WUHU21623XXSP,2013-09-13 18:50:00,
2013-09-13 14:55:00,72.9,57.4,29.74,WNW,292,0.0,0.0,58,0.00,,,0.00,WUHU21623XXSP,2013-09-13 18:55:00,
2013-09-13 15:00:00,72.9,57.4,29.74,North,0,2.7,3.6,58,0.00,,,0.00,WUHU21623XXSP,2013-09-13 19:00:00,
2013-09-13 15:05:00,72.9,57.4,29.74,North,0,0.0,3.6,58,0.00,,,0.00,WUHU21623XXSP,2013-09-13 19:05:00,
2013-09-13 15:10:00,72.9,57.4,29.74,NNW,337,0.0,0.0,58,0.00,,,0.00,WUHU21623XXSP,2013-09-13 19:10:00,
2013-09-13 15:15:00,72.9,57.4,29.74,NW,305,1.5,1.8,58,0.00,,,0.00,WUHU21623XXSP,2013-09-13 19:15:00,
2013-09-13 15:20:00,73.3,57.3,29.74,WNW,300,2.9,9.2,57,0.00,,,0.00,WUHU21623XXSP,2013-09-13 19:20:00,
2013-09-13 15:25:00,73.3,57.3,29.74,WNW,292,0.0,9.2,57,0.00,,,0.00,WUHU21623XXSP,2013-09-13 19:25:00,
2013-09-13 15:30:00,73.1,57.1,29.74,NW,315,0.0,4.7,57,0.00,,,0.00,WUHU21623XXSP,2013-09-13 19:30:00,
2013-09-13 15:35:00,73.3,57.3,29.74,WNW,295,5.0,10.1,57,0.00,,,0.00,WUHU21623XXSP,2013-09-13 19:35:00,
2013-09-13 15:40:00,73.3,56.8,29.74,North,0,3.6,10.1,56,0.00,,,0.00,WUHU21623XXSP,2013-09-13 19:40:00,
2013-09-13 15:45:00,73.5,57.5,29.74,NNW,337,1.6,4.3,57,0.00,,,0.00,WUHU21623XXSP,2013-09-13 19:45:00,
2013-09-13 15:50:00,74.2,58.2,29.74,WNW,298,7.7,10.3,57,0.00,,,0.00,WUHU21623XXSP,2013-09-13 19:50:00,
2013-09-13 15:55:00,75.4,58.3,29.74,West,270,0.0,10.3,55,0.00,,,0.00,WUHU21623XXSP,2013-09-13 19:55:00,
2013-09-13 16:00:00,76.9,58.6,29.74,NW,315,0.0,0.0,53,0.00,,,0.00,WUHU21623XXSP,2013-09-13 20:00:00,
2013-09-13 16:05:00,78.3,58.8,29.73,North,0,0.0,0.0,51,0.00,,,0.00,WUHU21623XXSP,2013-09-13 20:05:00,
2013-09-13 16:10:00,79.6,58.9,29.74,NNW,337,0.0,3.4,49,0.00,,,0.00,WUHU21623XXSP,2013-09-13 20:10:00,
2013-09-13 16:15:00,80.7,59.3,29.74,NNW,337,0.0,3.4,48,0.00,,,0.00,WUHU21623XXSP,2013-09-13 20:15:00,
2013-09-13 16:20:00,81.6,59.5,29.74,ESE,112,0.0,0.0,47,0.00,,,0.00,WUHU21623XXSP,2013-09-13 20:20:00,
2013-09-13 16:25:00,81.9,59.1,29.74,ESE,112,1.8,1.8,46,0.00,,,0.00,WUHU21623XXSP,2013-09-13 20:25:00,
2013-09-13 16:30:00,82.6,59.8,29.74,SE,135,5.8,5.8,46,0.00,,,0.00,WUHU21623XXSP,2013-09-13 20:30:00,
2013-09-13 16:35:00,83.0,59.5,29.74,SE,135,0.0,5.8,45,0.00,,,0.00,WUHU21623XXSP,2013-09-13 20:35:00,
2013-09-13 16:40:00,82.8,60.0,29.74,South,180,0.0,0.0,46,0.00,,,0.00,WUHU21623XXSP,2013-09-13 20:40:00,
2013-09-13 16:45:00,82.5,59.7,29.74,West,270,0.0,0.0,46,0.00,,,0.00,WUHU21623XXSP,2013-09-13 20:45:00,
2013-09-13 16:50:00,81.6,58.9,29.74,NW,315,0.0,0.0,46,0.00,,,0.00,WUHU21623XXSP,2013-09-13 20:50:00,
2013-09-13 16:55:00,80.3,58.3,29.74,NNW,337,0.0,0.0,47,0.00,,,0.00,WUHU21623XXSP,2013-09-13 20:55:00,
2013-09-13 17:00:00,79.6,58.3,29.74,NNW,337,0.0,0.0,48,0.00,,,0.00,WUHU21623XXSP,2013-09-13 21:00:00,
2013-09-13 17:05:00,78.9,57.6,29.75,NNW,337,0.0,0.0,48,0.00,,,0.00,WUHU21623XXSP,2013-09-13 21:05:00,
2013-09-13 17:10:00,78.0,57.4,29.74,West,270,0.0,0.0,49,0.00,,,0.00,WUHU21623XXSP,2013-09-13 21:10:00,
2013-09-13 17:15:00,77.2,56.6,29.74,West,270,0.0,0.0,49,0.00,,,0.00,WUHU21623XXSP,2013-09-13 21:15:00,
2013-09-13 17:20:00,76.5,56.6,29.74,West,270,0.0,0.0,50,0.00,,,0.00,WUHU21623XXSP,2013-09-13 21:20:00,
2013-09-13 17:25:00,76.0,56.1,29.75,West,270,0.0,0.0,50,0.00,,,0.00,WUHU21623XXSP,2013-09-13 21:25:00,
2013-09-13 17:30:00,75.3,56.0,29.74,West,270,0.0,0.0,51,0.00,,,0.00,WUHU21623XXSP,2013-09-13 21:30:00,
2013-09-13 17:34:00,74.9,55.7,29.74,West,270,0.0,0.0,51,0.00,,,0.00,WUHU21623XXSP,2013-09-13 21:34:00,
2013-09-13 17:39:00,74.5,55.3,29.74,WNW,292,0.0,0.0,51,0.00,,,0.00,WUHU21623XXSP,2013-09-13 21:39:00,
2013-09-13 17:44:00,74.2,55.6,29.75,WNW,292,0.0,0.0,52,0.00,,,0.00,WUHU21623XXSP,2013-09-13 21:44:00,
2013-09-13 17:49:00,73.8,55.2,29.75,WNW,292,0.0,0.0,52,0.00,,,0.00,WUHU21623XXSP,2013-09-13 21:49:00,
2013-09-13 17:54:00,73.6,55.0,29.75,WNW,292,0.0,0.0,52,0.00,,,0.00,WUHU21623XXSP,2013-09-13 21:54:00,
2013-09-13 17:59:00,73.3,54.7,29.75,WNW,292,0.0,0.0,52,0.00,,,0.00,WUHU21623XXSP,2013-09-13 21:59:00,
2013-09-13 18:04:00,72.9,54.3,29.75,WNW,292,0.0,0.0,52,0.00,,,0.00,WUHU21623XXSP,2013-09-13 22:04:00,
2013-09-13 18:09:00,72.9,54.3,29.75,NNE,22,0.0,0.0,52,0.00,,,0.00,WUHU21623XXSP,2013-09-13 22:09:00,
2013-09-13 18:14:00,72.7,54.2,29.76,NNW,337,0.0,0.0,52,0.00,,,0.00,WUHU21623XXSP,2013-09-13 22:14:00,
2013-09-13 18:19:00,72.7,54.7,29.76,NNW,337,0.0,0.0,53,0.00,,,0.00,WUHU21623XXSP,2013-09-13 22:19:00,
2013-09-13 18:24:00,72.4,54.4,29.76,NNW,337,0.0,0.0,53,0.00,,,0.00,WUHU21623XXSP,2013-09-13 22:24:00,
2013-09-13 18:29:00,72.0,54.0,29.76,NNW,337,0.0,0.0,53,0.00,,,0.00,WUHU21623XXSP,2013-09-13 22:29:00,
2013-09-13 18:34:00,71.8,53.9,29.77,NNW,337,0.0,0.0,53,0.00,,,0.00,WUHU21623XXSP,2013-09-13 22:34:00,
2013-09-13 18:39:00,71.7,53.8,29.77,NNW,337,0.0,0.0,53,0.00,,,0.00,WUHU21623XXSP,2013-09-13 22:39:00,
2013-09-13 18:44:00,71.5,53.6,29.78,NNW,337,0.0,0.0,53,0.00,,,0.00,WUHU21623XXSP,2013-09-13 22:44:00,
2013-09-13 18:49:00,71.1,52.7,29.78,North,0,1.8,2.5,52,0.00,,,0.00,WUHU21623XXSP,2013-09-13 22:49:00,
2013-09-13 18:54:00,70.9,52.5,29.78,North,0,2.0,2.5,52,0.00,,,0.00,WUHU21623XXSP,2013-09-13 22:54:00,
2013-09-13 18:59:00,70.8,52.4,29.79,North,0,2.2,2.7,52,0.00,,,0.00,WUHU21623XXSP,2013-09-13 22:59:00,
2013-09-13 19:04:00,70.6,52.2,29.79,NW,315,0.0,2.7,52,0.00,,,0.00,WUHU21623XXSP,2013-09-13 23:04:00,
2013-09-13 19:09:00,70.2,51.8,29.79,NNW,337,0.0,0.0,52,0.00,,,0.00,WUHU21623XXSP,2013-09-13 23:09:00,
2013-09-13 19:14:00,70.0,51.7,29.79,NNW,337,0.0,1.1,52,0.00,,,0.00,WUHU21623XXSP,2013-09-13 23:14:00,
2013-09-13 19:19:00,69.9,51.6,29.80,West,270,0.0,1.1,52,0.00,,,0.00,WUHU21623XXSP,2013-09-13 23:19:00,
2013-09-13 19:24:00,69.7,51.9,29.80,West,270,0.0,0.0,53,0.00,,,0.00,WUHU21623XXSP,2013-09-13 23:24:00,
2013-09-13 19:29:00,69.5,51.7,29.81,WNW,292,0.0,0.0,53,0.00,,,0.00,WUHU21623XXSP,2013-09-13 23:29:00,
2013-09-13 19:34:00,69.3,51.5,29.81,WNW,292,0.0,0.0,53,0.00,,,0.00,WUHU21623XXSP,2013-09-13 23:34:00,
2013-09-13 19:39:00,69.1,51.9,29.81,WNW,292,0.0,0.0,54,0.00,,,0.00,WUHU21623XXSP,2013-09-13 23:39:00,
2013-09-13 19:44:00,69.1,51.9,29.81,WNW,292,0.0,0.0,54,0.00,,,0.00,WUHU21623XXSP,2013-09-13 23:44:00,
2013-09-13 19:49:00,68.8,51.6,29.81,WNW,292,0.0,0.0,54,0.00,,,0.00,WUHU21623XXSP,2013-09-13 23:49:00,
2013-09-13 19:54:00,68.8,52.1,29.82,WNW,292,0.0,0.0,55,0.00,,,0.00,WUHU21623XXSP,2013-09-13 23:54:00,
2013-09-13 19:59:00,68.4,51.7,29.83,NW,315,0.0,0.0,55,0.00,,,0.00,WUHU21623XXSP,2013-09-13 23:59:00,
2013-09-13 20:04:00,68.2,51.5,29.83,NW,315,0.0,0.0,55,0.00,,,0.00,WUHU21623XXSP,2013-09-14 00:04:00,
2013-09-13 20:09:00,68.1,51.9,29.83,NW,315,0.0,0.0,56,0.00,,,0.00,WUHU21623XXSP,2013-09-14 00:09:00,
2013-09-13 20:14:00,67.9,51.8,29.83,WNW,292,0.0,0.0,56,0.00,,,0.00,WUHU21623XXSP,2013-09-14 00:14:00,
2013-09-13 20:19:00,67.5,51.4,29.84,WNW,292,0.0,0.0,56,0.00,,,0.00,WUHU21623XXSP,2013-09-14 00:19:00,
2013-09-13 20:24:00,67.3,51.2,29.84,NW,315,0.0,0.0,56,0.00,,,0.00,WUHU21623XXSP,2013-09-14 00:24:00,
2013-09-13 20:29:00,67.3,51.2,29.84,NW,315,0.0,0.0,56,0.00,,,0.00,WUHU21623XXSP,2013-09-14 00:29:00,
2013-09-13 20:34:00,67.0,51.4,29.84,WNW,292,0.0,0.0,57,0.00,,,0.00,WUHU21623XXSP,2013-09-14 00:34:00,
2013-09-13 20:39:00,66.8,51.2,29.85,NW,315,0.0,0.0,57,0.00,,,0.00,WUHU21623XXSP,2013-09-14 00:39:00,
2013-09-13 20:44:00,66.6,51.0,29.86,NW,315,0.0,0.0,57,0.00,,,0.00,WUHU21623XXSP,2013-09-14 00:44:00,
2013-09-13 20:49:00,66.6,51.0,29.86,NNW,337,0.0,0.0,57,0.00,,,0.00,WUHU21623XXSP,2013-09-14 00:49:00,
2013-09-13 20:54:00,66.4,51.3,29.86,NNE,22,0.0,0.0,58,0.00,,,0.00,WUHU21623XXSP,2013-09-14 00:54:00,
2013-09-13 20:59:00,66.3,51.2,29.86,NNW,337,0.0,0.0,58,0.00,,,0.00,WUHU21623XXSP,2013-09-14 00:59:00,
2013-09-13 21:04:00,66.1,51.0,29.86,NNW,337,0.0,0.0,58,0.00,,,0.00,WUHU21623XXSP,2013-09-14 01:04:00,
2013-09-13 21:09:00,66.1,51.0,29.87,NNW,337,0.0,0.0,58,0.00,,,0.00,WUHU21623XXSP,2013-09-14 01:09:00,
2013-09-13 21:14:00,65.7,51.1,29.87,WNW,292,0.0,0.0,59,0.00,,,0.00,WUHU21623XXSP,2013-09-14 01:14:00,
2013-09-13 21:19:00,65.7,51.1,29.87,NW,315,0.0,0.0,59,0.00,,,0.00,WUHU21623XXSP,2013-09-14 01:19:00,
2013-09-13 21:24:00,65.5,50.9,29.87,NW,315,0.0,0.0,59,0.00,,,0.00,WUHU21623XXSP,2013-09-14 01:24:00,
2013-09-13 21:29:00,65.5,50.9,29.87,NW,315,0.0,0.0,59,0.00,,,0.00,WUHU21623XXSP,2013-09-14 01:29:00,
2013-09-13 21:34:00,65.4,50.8,29.87,NW,315,0.0,0.0,59,0.00,,,0.00,WUHU21623XXSP,2013-09-14 01:34:00,
2013-09-13 21:39:00,65.2,51.1,29.87,NW,315,0.0,0.0,60,0.00,,,0.00,WUHU21623XXSP,2013-09-14 01:39:00,
2013-09-13 21:44:00,65.2,51.1,29.87,NW,315,0.0,0.0,60,0.00,,,0.00,WUHU21623XXSP,2013-09-14 01:44:00,
2013-09-13 21:49:00,65.0,50.9,29.87,NW,315,0.0,0.0,60,0.00,,,0.00,WUHU21623XXSP,2013-09-14 01:49:00,
2013-09-13 21:54:00,64.8,50.7,29.88,NW,315,0.0,0.0,60,0.00,,,0.00,WUHU21623XXSP,2013-09-14 01:54:00,
2013-09-13 21:59:00,64.8,51.2,29.88,NW,315,0.0,0.0,61,0.00,,,0.00,WUHU21623XXSP,2013-09-14 01:59:00,
2013-09-13 22:04:00,64.6,51.0,29.88,NNW,337,0.0,0.0,61,0.00,,,0.00,WUHU21623XXSP,2013-09-14 02:04:00,
2013-09-13 22:09:00,64.6,51.0,29.88,NNW,337,0.0,0.0,61,0.00,,,0.00,WUHU21623XXSP,2013-09-14 02:09:00,
2013-09-13 22:14:00,64.5,50.9,29.88,North,0,0.0,0.0,61,0.00,,,0.00,WUHU21623XXSP,2013-09-14 02:14:00,
2013-09-13 22:19:00,64.5,50.9,29.88,North,0,0.0,0.0,61,0.00,,,0.00,WUHU21623XXSP,2013-09-14 02:19:00,
2013-09-13 22:24:00,64.3,50.7,29.88,North,0,0.0,0.0,61,0.00,,,0.00,WUHU21623XXSP,2013-09-14 02:24:00,
2013-09-13 22:29:00,64.3,50.7,29.88,North,0,0.0,0.0,61,0.00,,,0.00,WUHU21623XXSP,2013-09-14 02:29:00,
2013-09-13 22:34:00,64.3,50.7,29.89,North,0,0.0,0.0,61,0.00,,,0.00,WUHU21623XXSP,2013-09-14 02:34:00,
2013-09-13 22:39:00,64.1,51.0,29.89,NNW,337,0.0,0.0,62,0.00,,,0.00,WUHU21623XXSP,2013-09-14 02:39:00,
2013-09-13 22:44:00,64.1,51.0,29.89,NW,315,0.0,0.0,62,0.00,,,0.00,WUHU21623XXSP,2013-09-14 02:44:00,
2013-09-13 22:49:00,63.9,50.8,29.89,NW,315,0.0,0.0,62,0.00,,,0.00,WUHU21623XXSP,2013-09-14 02:49:00,
2013-09-13 22:54:00,63.9,50.8,29.89,NW,315,0.0,0.0,62,0.00,,,0.00,WUHU21623XXSP,2013-09-14 02:54:00,
2013-09-13 22:59:00,63.9,50.8,29.89,NW,315,0.0,0.0,62,0.00,,,0.00,WUHU21623XXSP,2013-09-14 02:59:00,
2013-09-13 23:04:00,63.7,50.6,29.89,NNW,337,0.0,0.0,62,0.00,,,0.00,WUHU21623XXSP,2013-09-14 03:04:00,
2013-09-13 23:09:00,63.6,50.5,29.90,NNW,337,0.0,0.0,62,0.00,,,0.00,WUHU21623XXSP,2013-09-14 03:09:00,
2013-09-13 23:14:00,63.4,50.3,29.90,NNW,337,0.0,0.0,62,0.00,,,0.00,WUHU21623XXSP,2013-09-14 03:14:00,
2013-09-13 23:19:00,63.4,50.7,29.90,NNW,337,0.0,0.0,63,0.00,,,0.00,WUHU21623XXSP,2013-09-14 03:19:00,
2013-09-13 23:24:00,63.2,50.6,29.90,NW,315,0.0,0.0,63,0.00,,,0.00,WUHU21623XXSP,2013-09-14 03:24:00,
2013-09-13 23:29:00,63.0,50.4,29.90,WNW,292,0.0,0.0,63,0.00,,,0.00,WUHU21623XXSP,2013-09-14 03:29:00,
2013-09-13 23:34:00,62.8,50.2,29.90,WSW,247,0.0,0.0,63,0.00,,,0.00,WUHU21623XXSP,2013-09-14 03:34:00,
2013-09-13 23:39:00,62.8,50.2,29.90,West,270,0.0,0.0,63,0.00,,,0.00,WUHU21623XXSP,2013-09-14 03:39:00,
2013-09-13 23:44:00,62.7,50.1,29.90,West,270,0.0,0.0,63,0.00,,,0.00,WUHU21623XXSP,2013-09-14 03:44:00,
2013-09-13 23:49:00,62.5,50.3,29.90,West,270,0.0,0.0,64,0.00,,,0.00,WUHU21623XXSP,2013-09-14 03:49:00,
2013-09-13 23:54:00,62.5,50.3,29.91,West,270,0.0,0.0,64,0.00,,,0.00,WUHU21623XXSP,2013-09-14 03:54:00,
2013-09-13 23:59:00,62.1,49.9,29.91,West,270,0.0,0.0,64,0.00,,,0.00,WUHU21623XXSP,2013-09-14 03:59:00,